Year,Month,Day,Hour,Minute,Value (Times are PST for temperature in C)
2019,07,16,00,00,17.60
2019,07,16,00,01,17.60
2019,07,16,00,02,17.60
2019,07,16,00,03,17.60
2019,07,16,00,04,17.60
2019,07,16,00,05,17.60
2019,07,16,00,06,17.60
2019,07,16,00,07,17.60
2019,07,16,00,08,17.60
2019,07,16,00,09,17.60
2019,07,16,00,10,17.60
2019,07,16,00,11,17.60
2019,07,16,00,12,17.60
2019,07,16,00,13,17.60
2019,07,16,00,14,17.70
2019,07,16,00,15,17.70
2019,07,16,00,16,17.70
2019,07,16,00,17,17.70
2019,07,16,00,18,17.70
2019,07,16,00,19,17.70
2019,07,16,00,20,17.80
2019,07,16,00,21,17.80
2019,07,16,00,22,17.80
2019,07,16,00,23,17.80
2019,07,16,00,24,17.80
2019,07,16,00,25,17.90
2019,07,16,00,26,17.90
2019,07,16,00,27,17.90
2019,07,16,00,28,17.90
2019,07,16,00,29,17.90
2019,07,16,00,30,17.90
2019,07,16,00,31,17.80
2019,07,16,00,32,17.80
2019,07,16,00,33,17.80
2019,07,16,00,34,17.80
2019,07,16,00,35,17.80
2019,07,16,00,36,17.80
2019,07,16,00,37,17.80
2019,07,16,00,38,17.70
2019,07,16,00,39,17.70
2019,07,16,00,40,17.70
2019,07,16,00,41,17.60
2019,07,16,00,42,17.60
2019,07,16,00,43,17.60
2019,07,16,00,44,17.50
2019,07,16,00,45,17.50
2019,07,16,00,46,17.40
2019,07,16,00,47,17.40
2019,07,16,00,48,17.40
2019,07,16,00,49,17.30
2019,07,16,00,50,17.30
2019,07,16,00,51,17.30
2019,07,16,00,52,17.20
2019,07,16,00,53,17.20
2019,07,16,00,54,17.20
2019,07,16,00,55,17.10
2019,07,16,00,56,17.10
2019,07,16,00,57,17.10
2019,07,16,00,58,17.10
2019,07,16,00,59,17.00
2019,07,16,01,00,17.00
2019,07,16,01,01,17.00
2019,07,16,01,02,16.90
2019,07,16,01,03,16.90
2019,07,16,01,04,16.90
2019,07,16,01,05,16.90
2019,07,16,01,06,16.90
2019,07,16,01,07,16.90
2019,07,16,01,08,16.90
2019,07,16,01,09,16.80
2019,07,16,01,10,16.80
2019,07,16,01,11,16.80
2019,07,16,01,12,16.80
2019,07,16,01,13,16.80
2019,07,16,01,14,16.80
2019,07,16,01,15,16.80
2019,07,16,01,16,16.70
2019,07,16,01,17,16.70
2019,07,16,01,18,16.70
2019,07,16,01,19,16.70
2019,07,16,01,20,16.70
2019,07,16,01,21,16.70
2019,07,16,01,22,16.70
2019,07,16,01,23,16.60
2019,07,16,01,24,16.60
2019,07,16,01,25,16.60
2019,07,16,01,26,16.60
2019,07,16,01,27,16.60
2019,07,16,01,28,16.60
2019,07,16,01,29,16.50
2019,07,16,01,30,16.50
2019,07,16,01,31,16.50
2019,07,16,01,32,16.50
2019,07,16,01,33,16.50
2019,07,16,01,34,16.50
2019,07,16,01,35,16.50
2019,07,16,01,36,16.50
2019,07,16,01,37,16.50
2019,07,16,01,38,16.50
2019,07,16,01,39,16.50
2019,07,16,01,40,16.50
2019,07,16,01,41,16.40
2019,07,16,01,42,16.40
2019,07,16,01,43,16.40
2019,07,16,01,44,16.40
2019,07,16,01,45,16.40
2019,07,16,01,46,16.40
2019,07,16,01,47,16.40
2019,07,16,01,48,16.40
2019,07,16,01,49,16.40
2019,07,16,01,50,16.40
2019,07,16,01,51,16.30
2019,07,16,01,52,16.30
2019,07,16,01,53,16.30
2019,07,16,01,54,16.30
2019,07,16,01,55,16.30
2019,07,16,01,56,16.30
2019,07,16,01,57,16.30
2019,07,16,01,58,16.30
2019,07,16,01,59,16.30
2019,07,16,02,00,16.30
2019,07,16,02,01,16.30
2019,07,16,02,02,16.30
2019,07,16,02,03,16.30
2019,07,16,02,04,16.30
2019,07,16,02,05,16.30
2019,07,16,02,06,16.30
2019,07,16,02,07,16.30
2019,07,16,02,08,16.30
2019,07,16,02,09,16.30
2019,07,16,02,10,16.30
2019,07,16,02,11,16.30
2019,07,16,02,12,16.30
2019,07,16,02,13,16.30
2019,07,16,02,14,16.30
2019,07,16,02,15,16.30
2019,07,16,02,16,16.30
2019,07,16,02,17,16.30
2019,07,16,02,18,16.30
2019,07,16,02,19,16.30
2019,07,16,02,20,16.20
2019,07,16,02,21,16.20
2019,07,16,02,22,16.20
2019,07,16,02,23,16.20
2019,07,16,02,24,16.20
2019,07,16,02,25,16.20
2019,07,16,02,26,16.20
2019,07,16,02,27,16.20
2019,07,16,02,28,16.10
2019,07,16,02,29,16.10
2019,07,16,02,30,16.10
2019,07,16,02,31,16.10
2019,07,16,02,32,16.00
2019,07,16,02,33,16.00
2019,07,16,02,34,16.00
2019,07,16,02,35,15.90
2019,07,16,02,36,15.90
2019,07,16,02,37,15.90
2019,07,16,02,38,15.90
2019,07,16,02,39,15.90
2019,07,16,02,40,15.90
2019,07,16,02,41,15.90
2019,07,16,02,42,15.90
2019,07,16,02,43,15.90
2019,07,16,02,44,15.90
2019,07,16,02,45,15.90
2019,07,16,02,46,15.90
2019,07,16,02,47,15.90
2019,07,16,02,48,15.90
2019,07,16,02,49,15.90
2019,07,16,02,50,16.00
2019,07,16,02,51,16.00
2019,07,16,02,52,16.00
2019,07,16,02,53,16.00
2019,07,16,02,54,16.00
2019,07,16,02,55,16.00
2019,07,16,02,56,16.00
2019,07,16,02,57,16.00
2019,07,16,02,58,16.00
2019,07,16,02,59,16.00
2019,07,16,03,00,16.00
2019,07,16,03,01,16.00
2019,07,16,03,02,16.00
2019,07,16,03,03,16.00
2019,07,16,03,04,15.90
2019,07,16,03,05,15.90
2019,07,16,03,06,15.90
2019,07,16,03,07,15.90
2019,07,16,03,08,15.90
2019,07,16,03,09,15.80
2019,07,16,03,10,15.80
2019,07,16,03,11,15.80
2019,07,16,03,12,15.80
2019,07,16,03,13,15.80
2019,07,16,03,14,15.70
2019,07,16,03,15,15.70
2019,07,16,03,16,15.70
2019,07,16,03,17,15.70
2019,07,16,03,18,15.60
2019,07,16,03,19,15.60
2019,07,16,03,20,15.60
2019,07,16,03,21,15.50
2019,07,16,03,22,15.50
2019,07,16,03,23,15.40
2019,07,16,03,24,15.40
2019,07,16,03,25,15.40
2019,07,16,03,26,15.40
2019,07,16,03,27,15.30
2019,07,16,03,28,15.30
2019,07,16,03,29,15.30
2019,07,16,03,30,15.30
2019,07,16,03,31,15.30
2019,07,16,03,32,15.30
2019,07,16,03,33,15.30
2019,07,16,03,34,15.20
2019,07,16,03,35,15.30
2019,07,16,03,36,15.30
2019,07,16,03,37,15.30
2019,07,16,03,38,15.30
2019,07,16,03,39,15.30
2019,07,16,03,40,15.30
2019,07,16,03,41,15.30
2019,07,16,03,42,15.30
2019,07,16,03,43,15.30
2019,07,16,03,44,15.40
2019,07,16,03,45,15.40
2019,07,16,03,46,15.40
2019,07,16,03,47,15.40
2019,07,16,03,48,15.40
2019,07,16,03,49,15.50
2019,07,16,03,50,15.50
2019,07,16,03,51,15.50
2019,07,16,03,52,15.60
2019,07,16,03,53,15.60
2019,07,16,03,54,15.60
2019,07,16,03,55,15.70
2019,07,16,03,56,15.70
2019,07,16,03,57,15.70
2019,07,16,03,58,15.70
2019,07,16,03,59,15.80
2019,07,16,04,00,15.80
2019,07,16,04,01,15.80
2019,07,16,04,02,15.80
2019,07,16,04,03,15.80
2019,07,16,04,04,15.80
2019,07,16,04,05,15.80
2019,07,16,04,06,15.80
2019,07,16,04,07,15.80
2019,07,16,04,08,15.80
2019,07,16,04,09,15.80
2019,07,16,04,10,15.80
2019,07,16,04,11,15.80
2019,07,16,04,12,15.80
2019,07,16,04,13,15.80
2019,07,16,04,14,15.80
2019,07,16,04,15,15.80
2019,07,16,04,16,15.80
2019,07,16,04,17,15.80
2019,07,16,04,18,15.80
2019,07,16,04,19,15.70
2019,07,16,04,20,15.70
2019,07,16,04,21,15.70
2019,07,16,04,22,15.70
2019,07,16,04,23,15.70
2019,07,16,04,24,15.60
2019,07,16,04,25,15.60
2019,07,16,04,26,15.60
2019,07,16,04,27,15.50
2019,07,16,04,28,15.50
2019,07,16,04,29,15.40
2019,07,16,04,30,15.40
2019,07,16,04,31,15.40
2019,07,16,04,32,15.30
2019,07,16,04,33,15.30
2019,07,16,04,34,15.30
2019,07,16,04,35,15.30
2019,07,16,04,36,15.20
2019,07,16,04,37,15.20
2019,07,16,04,38,15.20
2019,07,16,04,39,15.20
2019,07,16,04,40,15.10
2019,07,16,04,41,15.10
2019,07,16,04,42,15.10
2019,07,16,04,43,15.10
2019,07,16,04,44,15.00
2019,07,16,04,45,15.00
2019,07,16,04,46,15.00
2019,07,16,04,47,15.00
2019,07,16,04,48,14.90
2019,07,16,04,49,14.90
2019,07,16,04,50,14.90
2019,07,16,04,51,14.90
2019,07,16,04,52,14.90
2019,07,16,04,53,14.80
2019,07,16,04,54,14.80
2019,07,16,04,55,14.80
2019,07,16,04,56,14.80
2019,07,16,04,57,14.80
2019,07,16,04,58,14.70
2019,07,16,04,59,14.70
2019,07,16,05,00,14.70
2019,07,16,05,01,14.70
2019,07,16,05,02,14.70
2019,07,16,05,03,14.60
2019,07,16,05,04,14.60
2019,07,16,05,05,14.60
2019,07,16,05,06,14.60
2019,07,16,05,07,14.60
2019,07,16,05,08,14.60
2019,07,16,05,09,14.60
2019,07,16,05,10,14.60
2019,07,16,05,11,14.60
2019,07,16,05,12,14.60
2019,07,16,05,13,14.60
2019,07,16,05,14,14.60
2019,07,16,05,15,14.60
2019,07,16,05,16,14.60
2019,07,16,05,17,14.60
2019,07,16,05,18,14.60
2019,07,16,05,19,14.60
2019,07,16,05,20,14.60
2019,07,16,05,21,14.60
2019,07,16,05,22,14.70
2019,07,16,05,23,14.70
2019,07,16,05,24,14.70
2019,07,16,05,25,14.70
2019,07,16,05,26,14.70
2019,07,16,05,27,14.70
2019,07,16,05,28,14.70
2019,07,16,05,29,14.70
2019,07,16,05,30,14.70
2019,07,16,05,31,14.70
2019,07,16,05,32,14.70
2019,07,16,05,33,14.70
2019,07,16,05,34,14.70
2019,07,16,05,35,14.70
2019,07,16,05,36,14.70
2019,07,16,05,37,14.70
2019,07,16,05,38,14.70
2019,07,16,05,39,14.70
2019,07,16,05,40,14.70
2019,07,16,05,41,14.70
2019,07,16,05,42,14.70
2019,07,16,05,43,14.70
2019,07,16,05,44,14.70
2019,07,16,05,45,14.70
2019,07,16,05,46,14.70
2019,07,16,05,47,14.70
2019,07,16,05,48,14.70
2019,07,16,05,49,14.70
2019,07,16,05,50,14.70
2019,07,16,05,51,14.70
2019,07,16,05,52,14.70
2019,07,16,05,53,14.70
2019,07,16,05,54,14.70
2019,07,16,05,55,14.60
2019,07,16,05,56,14.60
2019,07,16,05,57,14.60
2019,07,16,05,58,14.60
2019,07,16,05,59,14.70
2019,07,16,06,00,14.70
2019,07,16,06,01,14.70
2019,07,16,06,02,14.70
2019,07,16,06,03,14.70
2019,07,16,06,04,14.70
2019,07,16,06,05,14.70
2019,07,16,06,06,14.70
2019,07,16,06,07,14.70
2019,07,16,06,08,14.70
2019,07,16,06,09,14.70
2019,07,16,06,10,14.70
2019,07,16,06,11,14.70
2019,07,16,06,12,14.70
2019,07,16,06,13,14.70
2019,07,16,06,14,14.70
2019,07,16,06,15,14.70
2019,07,16,06,16,14.70
2019,07,16,06,17,14.70
2019,07,16,06,18,14.80
2019,07,16,06,19,14.80
2019,07,16,06,20,14.80
2019,07,16,06,21,14.80
2019,07,16,06,22,14.80
2019,07,16,06,23,14.80
2019,07,16,06,24,14.80
2019,07,16,06,25,14.80
2019,07,16,06,26,14.80
2019,07,16,06,27,14.80
2019,07,16,06,28,14.90
2019,07,16,06,29,14.90
2019,07,16,06,30,14.90
2019,07,16,06,31,14.90
2019,07,16,06,32,14.90
2019,07,16,06,33,14.90
2019,07,16,06,34,14.90
2019,07,16,06,35,14.90
2019,07,16,06,36,15.00
2019,07,16,06,37,15.00
2019,07,16,06,38,15.00
2019,07,16,06,39,15.00
2019,07,16,06,40,15.00
2019,07,16,06,41,15.00
2019,07,16,06,42,15.00
2019,07,16,06,43,15.00
2019,07,16,06,44,15.00
2019,07,16,06,45,15.00
2019,07,16,06,46,15.00
2019,07,16,06,47,15.00
2019,07,16,06,48,15.00
2019,07,16,06,49,15.00
2019,07,16,06,50,15.00
2019,07,16,06,51,15.00
2019,07,16,06,52,15.00
2019,07,16,06,53,15.10
2019,07,16,06,54,15.10
2019,07,16,06,55,15.10
2019,07,16,06,56,15.10
2019,07,16,06,57,15.10
2019,07,16,06,58,15.10
2019,07,16,06,59,15.10
2019,07,16,07,00,15.10
2019,07,16,07,01,15.10
2019,07,16,07,02,15.10
2019,07,16,07,03,15.10
2019,07,16,07,04,15.10
2019,07,16,07,05,15.10
2019,07,16,07,06,15.10
2019,07,16,07,07,15.10
2019,07,16,07,08,15.10
2019,07,16,07,09,15.10
2019,07,16,07,10,15.10
2019,07,16,07,11,15.10
2019,07,16,07,12,15.10
2019,07,16,07,13,15.10
2019,07,16,07,14,15.10
2019,07,16,07,15,15.10
2019,07,16,07,16,15.10
2019,07,16,07,17,15.10
2019,07,16,07,18,15.20
2019,07,16,07,19,15.20
2019,07,16,07,20,15.20
2019,07,16,07,21,15.20
2019,07,16,07,22,15.20
2019,07,16,07,23,15.20
2019,07,16,07,24,15.20
2019,07,16,07,25,15.20
2019,07,16,07,26,15.20
2019,07,16,07,27,15.30
2019,07,16,07,28,15.30
2019,07,16,07,29,15.30
2019,07,16,07,30,15.30
2019,07,16,07,31,15.30
2019,07,16,07,32,15.30
2019,07,16,07,33,15.30
2019,07,16,07,34,15.30
2019,07,16,07,35,15.30
2019,07,16,07,36,15.30
2019,07,16,07,37,15.40
2019,07,16,07,38,15.40
2019,07,16,07,39,15.40
2019,07,16,07,40,15.40
2019,07,16,07,41,15.40
2019,07,16,07,42,15.40
2019,07,16,07,43,15.40
2019,07,16,07,44,15.50
2019,07,16,07,45,15.50
2019,07,16,07,46,15.50
2019,07,16,07,47,15.50
2019,07,16,07,48,15.60
2019,07,16,07,49,15.60
2019,07,16,07,50,15.60
2019,07,16,07,51,15.70
2019,07,16,07,52,15.70
2019,07,16,07,53,15.70
2019,07,16,07,54,15.70
2019,07,16,07,55,15.70
2019,07,16,07,56,15.70
2019,07,16,07,57,15.70
2019,07,16,07,58,15.70
2019,07,16,07,59,15.80
2019,07,16,08,00,15.80
2019,07,16,08,01,15.80
2019,07,16,08,02,15.90
2019,07,16,08,03,15.90
2019,07,16,08,04,15.90
2019,07,16,08,05,15.90
2019,07,16,08,06,15.90
2019,07,16,08,07,15.80
2019,07,16,08,08,15.90
2019,07,16,08,09,15.90
2019,07,16,08,10,15.90
2019,07,16,08,11,15.90
2019,07,16,08,12,15.90
2019,07,16,08,13,16.00
2019,07,16,08,14,16.00
2019,07,16,08,15,16.10
2019,07,16,08,16,16.20
2019,07,16,08,17,16.20
2019,07,16,08,18,16.30
2019,07,16,08,19,16.40
2019,07,16,08,20,16.50
2019,07,16,08,21,16.50
2019,07,16,08,22,16.60
2019,07,16,08,23,16.70
2019,07,16,08,24,16.80
2019,07,16,08,25,16.90
2019,07,16,08,26,16.90
2019,07,16,08,27,17.00
2019,07,16,08,28,17.00
2019,07,16,08,29,17.00
2019,07,16,08,30,17.10
2019,07,16,08,31,17.00
2019,07,16,08,32,17.00
2019,07,16,08,33,16.90
2019,07,16,08,34,16.90
2019,07,16,08,35,16.80
2019,07,16,08,36,16.80
2019,07,16,08,37,16.80
2019,07,16,08,38,16.80
2019,07,16,08,39,16.80
2019,07,16,08,40,16.80
2019,07,16,08,41,16.80
2019,07,16,08,42,16.80
2019,07,16,08,43,16.80
2019,07,16,08,44,16.90
2019,07,16,08,45,16.90
2019,07,16,08,46,16.90
2019,07,16,08,47,17.00
2019,07,16,08,48,17.00
2019,07,16,08,49,17.00
2019,07,16,08,50,17.00
2019,07,16,08,51,17.10
2019,07,16,08,52,17.10
2019,07,16,08,53,17.10
2019,07,16,08,54,17.10
2019,07,16,08,55,17.10
2019,07,16,08,56,17.10
2019,07,16,08,57,17.10
2019,07,16,08,58,17.10
2019,07,16,08,59,17.10
2019,07,16,09,00,17.10
2019,07,16,09,01,17.10
2019,07,16,09,02,17.10
2019,07,16,09,03,17.20
2019,07,16,09,04,17.20
2019,07,16,09,05,17.20
2019,07,16,09,06,17.20
2019,07,16,09,07,17.20
2019,07,16,09,08,17.20
2019,07,16,09,09,17.30
2019,07,16,09,10,17.40
2019,07,16,09,11,17.50
2019,07,16,09,12,17.60
2019,07,16,09,13,17.70
2019,07,16,09,14,17.70
2019,07,16,09,15,17.80
2019,07,16,09,16,17.80
2019,07,16,09,17,17.90
2019,07,16,09,18,17.90
2019,07,16,09,19,18.00
2019,07,16,09,20,18.00
2019,07,16,09,21,18.00
2019,07,16,09,22,18.10
2019,07,16,09,23,18.10
2019,07,16,09,24,18.10
2019,07,16,09,25,18.20
2019,07,16,09,26,18.30
2019,07,16,09,27,18.30
2019,07,16,09,28,18.30
2019,07,16,09,29,18.40
2019,07,16,09,30,18.40
2019,07,16,09,31,18.40
2019,07,16,09,32,18.40
2019,07,16,09,33,18.40
2019,07,16,09,34,18.30
2019,07,16,09,35,18.30
2019,07,16,09,36,18.40
2019,07,16,09,37,18.30
2019,07,16,09,38,18.40
2019,07,16,09,39,18.40
2019,07,16,09,40,18.50
2019,07,16,09,41,18.50
2019,07,16,09,42,18.60
2019,07,16,09,43,18.70
2019,07,16,09,44,18.70
2019,07,16,09,45,18.70
2019,07,16,09,46,18.80
2019,07,16,09,47,18.80
2019,07,16,09,48,18.90
2019,07,16,09,49,19.00
2019,07,16,09,50,19.10
2019,07,16,09,51,19.30
2019,07,16,09,52,19.30
2019,07,16,09,53,19.30
2019,07,16,09,54,19.40
2019,07,16,09,55,19.40
2019,07,16,09,56,19.40
2019,07,16,09,57,19.40
2019,07,16,09,58,19.50
2019,07,16,09,59,19.50
2019,07,16,10,00,19.50
2019,07,16,10,01,19.50
2019,07,16,10,02,19.60
2019,07,16,10,03,19.60
2019,07,16,10,04,19.60
2019,07,16,10,05,19.60
2019,07,16,10,06,19.60
2019,07,16,10,07,19.70
2019,07,16,10,08,19.70
2019,07,16,10,09,19.80
2019,07,16,10,10,19.80
2019,07,16,10,11,19.80
2019,07,16,10,12,19.80
2019,07,16,10,13,19.80
2019,07,16,10,14,19.90
2019,07,16,10,15,19.90
2019,07,16,10,16,20.00
2019,07,16,10,17,20.00
2019,07,16,10,18,20.00
2019,07,16,10,19,20.00
2019,07,16,10,20,19.90
2019,07,16,10,21,19.90
2019,07,16,10,22,19.90
2019,07,16,10,23,19.90
2019,07,16,10,24,20.00
2019,07,16,10,25,20.00
2019,07,16,10,26,20.10
2019,07,16,10,27,20.10
2019,07,16,10,28,20.10
2019,07,16,10,29,20.10
2019,07,16,10,30,20.10
2019,07,16,10,31,20.10
2019,07,16,10,32,20.20
2019,07,16,10,33,20.20
2019,07,16,10,34,20.30
2019,07,16,10,35,20.40
2019,07,16,10,36,20.40
2019,07,16,10,37,20.40
2019,07,16,10,38,20.20
2019,07,16,10,39,20.10
2019,07,16,10,40,20.00
2019,07,16,10,41,20.00
2019,07,16,10,42,20.00
2019,07,16,10,43,20.10
2019,07,16,10,44,20.10
2019,07,16,10,45,20.20
2019,07,16,10,46,20.20
2019,07,16,10,47,20.30
2019,07,16,10,48,20.30
2019,07,16,10,49,20.40
2019,07,16,10,50,20.50
2019,07,16,10,51,20.60
2019,07,16,10,52,20.70
2019,07,16,10,53,20.90
2019,07,16,10,54,21.00
2019,07,16,10,55,21.10
2019,07,16,10,56,21.20
2019,07,16,10,57,21.20
2019,07,16,10,58,21.20
2019,07,16,10,59,21.20
2019,07,16,11,00,21.20
2019,07,16,11,01,21.30
2019,07,16,11,02,21.30
2019,07,16,11,03,21.30
2019,07,16,11,04,21.40
2019,07,16,11,05,21.40
2019,07,16,11,06,21.40
2019,07,16,11,07,21.40
2019,07,16,11,08,21.30
2019,07,16,11,09,21.30
2019,07,16,11,10,21.30
2019,07,16,11,11,21.30
2019,07,16,11,12,21.20
2019,07,16,11,13,21.20
2019,07,16,11,14,21.20
2019,07,16,11,15,21.20
2019,07,16,11,16,21.20
2019,07,16,11,17,21.10
2019,07,16,11,18,21.10
2019,07,16,11,19,21.10
2019,07,16,11,20,21.10
2019,07,16,11,21,21.20
2019,07,16,11,22,21.20
2019,07,16,11,23,21.20
2019,07,16,11,24,21.20
2019,07,16,11,25,21.20
2019,07,16,11,26,21.20
2019,07,16,11,27,21.10
2019,07,16,11,28,21.00
2019,07,16,11,29,21.00
2019,07,16,11,30,21.10
2019,07,16,11,31,21.10
2019,07,16,11,32,21.10
2019,07,16,11,33,21.10
2019,07,16,11,34,21.20
2019,07,16,11,35,21.20
2019,07,16,11,36,21.30
2019,07,16,11,37,21.40
2019,07,16,11,38,21.40
2019,07,16,11,39,21.40
2019,07,16,11,40,21.50
2019,07,16,11,41,21.50
2019,07,16,11,42,21.60
2019,07,16,11,43,21.60
2019,07,16,11,44,21.70
2019,07,16,11,45,21.80
2019,07,16,11,46,21.90
2019,07,16,11,47,21.90
2019,07,16,11,48,21.90
2019,07,16,11,49,21.90
2019,07,16,11,50,21.90
2019,07,16,11,51,21.90
2019,07,16,11,52,22.00
2019,07,16,11,53,22.00
2019,07,16,11,54,22.10
2019,07,16,11,55,22.10
2019,07,16,11,56,22.10
2019,07,16,11,57,22.10
2019,07,16,11,58,22.10
2019,07,16,11,59,22.10
2019,07,16,12,00,22.10
2019,07,16,12,01,22.10
2019,07,16,12,02,22.20
2019,07,16,12,03,22.10
2019,07,16,12,04,22.10
2019,07,16,12,05,22.10
2019,07,16,12,06,22.10
2019,07,16,12,07,22.10
2019,07,16,12,08,22.10
2019,07,16,12,09,22.10
2019,07,16,12,10,22.10
2019,07,16,12,11,22.10
2019,07,16,12,12,22.00
2019,07,16,12,13,22.00
2019,07,16,12,14,22.00
2019,07,16,12,15,22.00
2019,07,16,12,16,21.90
2019,07,16,12,17,21.90
2019,07,16,12,18,21.80
2019,07,16,12,19,21.80
2019,07,16,12,20,21.80
2019,07,16,12,21,21.90
2019,07,16,12,22,21.90
2019,07,16,12,23,22.00
2019,07,16,12,24,22.10
2019,07,16,12,25,22.20
2019,07,16,12,26,22.40
2019,07,16,12,27,22.50
2019,07,16,12,28,22.50
2019,07,16,12,29,22.50
2019,07,16,12,30,22.40
2019,07,16,12,31,22.30
2019,07,16,12,32,22.20
2019,07,16,12,33,22.20
2019,07,16,12,34,22.10
2019,07,16,12,35,22.10
2019,07,16,12,36,22.00
2019,07,16,12,37,22.00
2019,07,16,12,38,22.10
2019,07,16,12,39,22.10
2019,07,16,12,40,22.10
2019,07,16,12,41,22.10
2019,07,16,12,42,22.20
2019,07,16,12,43,22.20
2019,07,16,12,44,22.30
2019,07,16,12,45,22.40
2019,07,16,12,46,22.50
2019,07,16,12,47,22.50
2019,07,16,12,48,22.50
2019,07,16,12,49,22.50
2019,07,16,12,50,22.40
2019,07,16,12,51,22.30
2019,07,16,12,52,22.30
2019,07,16,12,53,22.20
2019,07,16,12,54,22.20
2019,07,16,12,55,22.10
2019,07,16,12,56,22.10
2019,07,16,12,57,22.00
2019,07,16,12,58,21.90
2019,07,16,12,59,21.90
2019,07,16,13,00,21.90
2019,07,16,13,01,22.00
2019,07,16,13,02,22.10
2019,07,16,13,03,22.10
2019,07,16,13,04,22.20
2019,07,16,13,05,22.20
2019,07,16,13,06,22.30
2019,07,16,13,07,22.30
2019,07,16,13,08,22.40
2019,07,16,13,09,22.50
2019,07,16,13,10,22.60
2019,07,16,13,11,22.60
2019,07,16,13,12,22.70
2019,07,16,13,13,22.70
2019,07,16,13,14,22.80
2019,07,16,13,15,22.80
2019,07,16,13,16,22.70
2019,07,16,13,17,22.70
2019,07,16,13,18,22.70
2019,07,16,13,19,22.70
2019,07,16,13,20,22.80
2019,07,16,13,21,22.90
2019,07,16,13,22,23.00
2019,07,16,13,23,23.10
2019,07,16,13,24,23.10
2019,07,16,13,25,23.10
2019,07,16,13,26,23.10
2019,07,16,13,27,23.10
2019,07,16,13,28,23.10
2019,07,16,13,29,23.00
2019,07,16,13,30,22.90
2019,07,16,13,31,22.90
2019,07,16,13,32,22.80
2019,07,16,13,33,22.60
2019,07,16,13,34,22.50
2019,07,16,13,35,22.30
2019,07,16,13,36,22.20
2019,07,16,13,37,22.20
2019,07,16,13,38,22.10
2019,07,16,13,39,22.10
2019,07,16,13,40,22.00
2019,07,16,13,41,22.00
2019,07,16,13,42,22.10
2019,07,16,13,43,22.20
2019,07,16,13,44,22.20
2019,07,16,13,45,22.30
2019,07,16,13,46,22.40
2019,07,16,13,47,22.60
2019,07,16,13,48,22.80
2019,07,16,13,49,22.90
2019,07,16,13,50,22.90
2019,07,16,13,51,22.90
2019,07,16,13,52,22.90
2019,07,16,13,53,22.90
2019,07,16,13,54,22.90
2019,07,16,13,55,22.90
2019,07,16,13,56,22.90
2019,07,16,13,57,23.10
2019,07,16,13,58,23.20
2019,07,16,13,59,23.30
2019,07,16,14,00,23.40
2019,07,16,14,01,23.60
2019,07,16,14,02,23.60
2019,07,16,14,03,23.60
2019,07,16,14,04,23.60
2019,07,16,14,05,23.70
2019,07,16,14,06,23.70
2019,07,16,14,07,23.60
2019,07,16,14,08,23.50
2019,07,16,14,09,23.40
2019,07,16,14,10,23.40
2019,07,16,14,11,23.30
2019,07,16,14,12,23.10
2019,07,16,14,13,23.10
2019,07,16,14,14,23.00
2019,07,16,14,15,23.00
2019,07,16,14,16,22.90
2019,07,16,14,17,22.90
2019,07,16,14,18,22.90
2019,07,16,14,19,23.00
2019,07,16,14,20,23.10
2019,07,16,14,21,23.10
2019,07,16,14,22,23.10
2019,07,16,14,23,23.10
2019,07,16,14,24,23.20
2019,07,16,14,25,23.30
2019,07,16,14,26,23.20
2019,07,16,14,27,23.10
2019,07,16,14,28,23.10
2019,07,16,14,29,23.20
2019,07,16,14,30,23.20
2019,07,16,14,31,23.30
2019,07,16,14,32,23.30
2019,07,16,14,33,23.40
2019,07,16,14,34,23.50
2019,07,16,14,35,23.60
2019,07,16,14,36,23.70
2019,07,16,14,37,23.80
2019,07,16,14,38,23.90
2019,07,16,14,39,23.90
2019,07,16,14,40,23.90
2019,07,16,14,41,23.90
2019,07,16,14,42,23.90
2019,07,16,14,43,24.00
2019,07,16,14,44,24.00
2019,07,16,14,45,24.00
2019,07,16,14,46,24.00
2019,07,16,14,47,24.10
2019,07,16,14,48,24.10
2019,07,16,14,49,24.20
2019,07,16,14,50,24.30
2019,07,16,14,51,24.30
2019,07,16,14,52,24.30
2019,07,16,14,53,24.40
2019,07,16,14,54,24.40
2019,07,16,14,55,24.40
2019,07,16,14,56,24.30
2019,07,16,14,57,24.30
2019,07,16,14,58,24.30
2019,07,16,14,59,24.20
2019,07,16,15,00,24.20
2019,07,16,15,01,24.10
2019,07,16,15,02,24.10
2019,07,16,15,03,24.10
2019,07,16,15,04,24.10
2019,07,16,15,05,24.20
2019,07,16,15,06,24.20
2019,07,16,15,07,24.20
2019,07,16,15,08,24.20
2019,07,16,15,09,24.20
2019,07,16,15,10,24.20
2019,07,16,15,11,24.20
2019,07,16,15,12,24.10
2019,07,16,15,13,24.10
2019,07,16,15,14,24.10
2019,07,16,15,15,24.10
2019,07,16,15,16,24.10
2019,07,16,15,17,24.20
2019,07,16,15,18,24.30
2019,07,16,15,19,24.30
2019,07,16,15,20,24.20
2019,07,16,15,21,24.20
2019,07,16,15,22,24.30
2019,07,16,15,23,24.30
2019,07,16,15,24,24.40
2019,07,16,15,25,24.40
2019,07,16,15,26,24.40
2019,07,16,15,27,24.50
2019,07,16,15,28,24.50
2019,07,16,15,29,24.60
2019,07,16,15,30,24.60
2019,07,16,15,31,24.60
2019,07,16,15,32,24.60
2019,07,16,15,33,24.60
2019,07,16,15,34,24.60
2019,07,16,15,35,24.60
2019,07,16,15,36,24.50
2019,07,16,15,37,24.40
2019,07,16,15,38,24.30
2019,07,16,15,39,24.10
2019,07,16,15,40,24.00
2019,07,16,15,41,23.80
2019,07,16,15,42,23.70
2019,07,16,15,43,23.70
2019,07,16,15,44,23.70
2019,07,16,15,45,23.60
2019,07,16,15,46,23.60
2019,07,16,15,47,23.60
2019,07,16,15,48,23.60
2019,07,16,15,49,23.60
2019,07,16,15,50,23.60
2019,07,16,15,51,23.60
2019,07,16,15,52,23.60
2019,07,16,15,53,23.60
2019,07,16,15,54,23.60
2019,07,16,15,55,23.60
2019,07,16,15,56,23.70
2019,07,16,15,57,23.80
2019,07,16,15,58,23.80
2019,07,16,15,59,23.80
2019,07,16,16,00,23.90
2019,07,16,16,01,23.90
2019,07,16,16,02,23.90
2019,07,16,16,03,23.90
2019,07,16,16,04,23.90
2019,07,16,16,05,23.90
2019,07,16,16,06,24.00
2019,07,16,16,07,24.00
2019,07,16,16,08,24.10
2019,07,16,16,09,24.20
2019,07,16,16,10,24.30
2019,07,16,16,11,24.30
2019,07,16,16,12,24.40
2019,07,16,16,13,24.50
2019,07,16,16,14,24.50
2019,07,16,16,15,24.60
2019,07,16,16,16,24.60
2019,07,16,16,17,24.70
2019,07,16,16,18,24.70
2019,07,16,16,19,24.80
2019,07,16,16,20,24.90
2019,07,16,16,21,25.00
2019,07,16,16,22,25.10
2019,07,16,16,23,25.20
2019,07,16,16,24,25.20
2019,07,16,16,25,25.20
2019,07,16,16,26,25.20
2019,07,16,16,27,25.20
2019,07,16,16,28,25.20
2019,07,16,16,29,25.10
2019,07,16,16,30,25.10
2019,07,16,16,31,25.00
2019,07,16,16,32,24.90
2019,07,16,16,33,24.90
2019,07,16,16,34,24.80
2019,07,16,16,35,24.80
2019,07,16,16,36,24.80
2019,07,16,16,37,24.80
2019,07,16,16,38,24.80
2019,07,16,16,39,24.90
2019,07,16,16,40,25.00
2019,07,16,16,41,25.10
2019,07,16,16,42,25.20
2019,07,16,16,43,25.30
2019,07,16,16,44,25.30
2019,07,16,16,45,25.40
2019,07,16,16,46,25.40
2019,07,16,16,47,25.40
2019,07,16,16,48,25.40
2019,07,16,16,49,25.40
2019,07,16,16,50,25.40
2019,07,16,16,51,25.30
2019,07,16,16,52,25.30
2019,07,16,16,53,25.20
2019,07,16,16,54,25.20
2019,07,16,16,55,25.20
2019,07,16,16,56,25.20
2019,07,16,16,57,25.20
2019,07,16,16,58,25.30
2019,07,16,16,59,25.30
2019,07,16,17,00,25.30
2019,07,16,17,01,25.20
2019,07,16,17,02,25.20
2019,07,16,17,03,25.10
2019,07,16,17,04,25.10
2019,07,16,17,05,25.10
2019,07,16,17,06,25.10
2019,07,16,17,07,25.10
2019,07,16,17,08,25.00
2019,07,16,17,09,25.00
2019,07,16,17,10,25.00
2019,07,16,17,11,25.00
2019,07,16,17,12,25.00
2019,07,16,17,13,25.00
2019,07,16,17,14,25.00
2019,07,16,17,15,24.90
2019,07,16,17,16,24.90
2019,07,16,17,17,24.80
2019,07,16,17,18,24.80
2019,07,16,17,19,24.80